• în România
  • Lista ţărilor
  • Pe 7 zile
  • Temperatura apei
  • Hartă satelitară
  • Meteo pe hartă
  • Widget-uri
  • user-avatar
    Intrare

    Meteo pe oră la Buzău

    Astăzi, 23 Aprilie, Luni

    Timp Temperatura Precipitaţii Vânt Presiune Umiditate
    00:00 +18°C° 0 mm 3 m/s 752 mmHg 62%
    01:00 +17°C° 0 mm 3 m/s 752 mmHg 64%
    02:00 +17°C° 0 mm 3 m/s 752 mmHg 66%
    03:00 +17°C° 0 mm 2 m/s 752 mmHg 67%
    04:00 +16°C° 0 mm 2 m/s 752 mmHg 68%
    05:00 +16°C° 0 mm 2 m/s 752 mmHg 69%
    06:00 +17°C° 0 mm 2 m/s 752 mmHg 64%
    07:00 +19°C° 0 mm 2 m/s 752 mmHg 58%
    08:00 +20°C° 0 mm 2 m/s 752 mmHg 53%
    09:00 +21°C° 0 mm 2 m/s 752 mmHg 48%
    10:00 +24°C° 0 mm 2 m/s 752 mmHg 43%
    11:00 +25°C° 0 mm 2 m/s 752 mmHg 39%
    12:00 +26°C° 0 mm 2 m/s 752 mmHg 38%
    13:00 +27°C° 0 mm 2 m/s 752 mmHg 37%
    14:00 +27°C° 0 mm 2 m/s 752 mmHg 36%
    15:00 +27°C° 0,1 mm 1 m/s 752 mmHg 37%
    16:00 +27°C° 0,1 mm 1 m/s 752 mmHg 39%
    17:00 +27°C° 0,1 mm 1 m/s 752 mmHg 40%
    18:00 +25°C° 0,2 mm 1 m/s 752 mmHg 46%
    19:00 +23°C° 0,2 mm 2 m/s 752 mmHg 52%
    20:00 +20°C° 0,2 mm 2 m/s 752 mmHg 58%
    21:00 +19°C° 0,2 mm 2 m/s 752 mmHg 61%
    22:00 +18°C° 0,2 mm 2 m/s 753 mmHg 64%
    23:00 +17°C° 0,2 mm 2 m/s 753 mmHg 67%

    Mâine, 24 Aprilie, Marţi

    Timp Temperatura Precipitaţii Vânt Presiune Umiditate
    00:00 +17°C° 0 mm 2 m/s 753 mmHg 68%
    01:00 +16°C° 0 mm 2 m/s 753 mmHg 70%
    02:00 +16°C° 0 mm 2 m/s 753 mmHg 72%
    03:00 +16°C° 0 mm 2 m/s 753 mmHg 73%
    04:00 +16°C° 0 mm 2 m/s 753 mmHg 75%
    05:00 +15°C° 0 mm 2 m/s 753 mmHg 76%
    06:00 +17°C° 0 mm 2 m/s 753 mmHg 72%
    07:00 +19°C° 0 mm 2 m/s 753 mmHg 67%
    08:00 +20°C° 0 mm 2 m/s 753 mmHg 63%
    09:00 +23°C° 0 mm 2 m/s 753 mmHg 56%
    10:00 +25°C° 0 mm 3 m/s 753 mmHg 50%
    11:00 +27°C° 0 mm 3 m/s 753 mmHg 44%
    12:00 +28°C° 0 mm 4 m/s 753 mmHg 41%
    13:00 +29°C° 0 mm 4 m/s 752 mmHg 38%
    14:00 +30°C° 0 mm 4 m/s 752 mmHg 34%
    15:00 +29°C° 0 mm 4 m/s 752 mmHg 37%
    16:00 +28°C° 0 mm 4 m/s 752 mmHg 39%
    17:00 +28°C° 0 mm 3 m/s 752 mmHg 41%
    18:00 +26°C° 0,2 mm 3 m/s 752 mmHg 47%
    19:00 +24°C° 0,2 mm 3 m/s 752 mmHg 54%
    20:00 +21°C° 0,2 mm 2 m/s 752 mmHg 60%
    21:00 +20°C° 0,5 mm 2 m/s 753 mmHg 64%
    22:00 +20°C° 0,5 mm 2 m/s 753 mmHg 68%
    23:00 +20°C° 0,5 mm 1 m/s 754 mmHg 71%

    Poimâine, 25 Aprilie, Miercuri

    Timp Temperatura Precipitaţii Vânt Presiune Umiditate
    00:00 +20°C° 0,2 mm 1 m/s 754 mmHg 72%
    01:00 +18°C° 0,2 mm 2 m/s 753 mmHg 73%
    02:00 +18°C° 0,2 mm 2 m/s 753 mmHg 74%
    03:00 +17°C° 0 mm 2 m/s 754 mmHg 76%
    04:00 +17°C° 0 mm 2 m/s 754 mmHg 77%
    05:00 +16°C° 0 mm 2 m/s 754 mmHg 79%
    06:00 +18°C° 0 mm 2 m/s 754 mmHg 75%
    07:00 +19°C° 0 mm 2 m/s 754 mmHg 70%
    08:00 +21°C° 0 mm 2 m/s 754 mmHg 66%
    09:00 +23°C° 0 mm 2 m/s 754 mmHg 60%
    10:00 +25°C° 0 mm 2 m/s 754 mmHg 55%
    11:00 +26°C° 0 mm 2 m/s 754 mmHg 50%
    12:00 +27°C° 0 mm 2 m/s 754 mmHg 47%
    13:00 +28°C° 0 mm 2 m/s 753 mmHg 45%
    14:00 +28°C° 0 mm 2 m/s 753 mmHg 43%
    15:00 +28°C° 0 mm 2 m/s 753 mmHg 43%
    16:00 +28°C° 0 mm 2 m/s 752 mmHg 43%
    17:00 +28°C° 0 mm 3 m/s 752 mmHg 44%
    18:00 +26°C° 0 mm 3 m/s 752 mmHg 50%
    19:00 +24°C° 0 mm 2 m/s 752 mmHg 56%
    20:00 +23°C° 0 mm 2 m/s 752 mmHg 62%
    21:00 +21°C° 0 mm 2 m/s 752 mmHg 66%
    22:00 +20°C° 0 mm 2 m/s 752 mmHg 70%
    23:00 +19°C° 0 mm 2 m/s 753 mmHg 74%

    26 Aprilie, Joi

    Timp Temperatura Precipitaţii Vânt Presiune Umiditate
    00:00 +18°C° 0 mm 2 m/s 752 mmHg 75%
    01:00 +19°C° 0 mm 1 m/s 752 mmHg 77%
    02:00 +19°C° 0 mm 1 m/s 752 mmHg 79%
    03:00 +18°C° 0 mm 1 m/s 752 mmHg 79%
    04:00 +18°C° 0 mm 1 m/s 752 mmHg 79%
    05:00 +18°C° 0 mm 1 m/s 752 mmHg 78%
    06:00 +20°C° 0 mm 1 m/s 752 mmHg 72%
    07:00 +21°C° 0 mm 1 m/s 752 mmHg 66%
    08:00 +23°C° 0 mm 1 m/s 752 mmHg 60%
    09:00 +25°C° 0 mm 1 m/s 752 mmHg 54%
    10:00 +26°C° 0 mm 2 m/s 752 mmHg 49%
    11:00 +28°C° 0 mm 2 m/s 752 mmHg 43%
    12:00 +28°C° 0,2 mm 2 m/s 752 mmHg 42%
    13:00 +29°C° 0,2 mm 2 m/s 752 mmHg 40%
    14:00 +29°C° 0,2 mm 2 m/s 751 mmHg 38%
    15:00 +29°C° 0,4 mm 2 m/s 751 mmHg 39%
    16:00 +29°C° 0,4 mm 2 m/s 751 mmHg 40%
    17:00 +29°C° 0,4 mm 2 m/s 751 mmHg 41%
    18:00 +27°C° 0,2 mm 2 m/s 751 mmHg 45%
    19:00 +26°C° 0,2 mm 2 m/s 751 mmHg 49%
    20:00 +24°C° 0,2 mm 2 m/s 752 mmHg 52%
    21:00 +23°C° 0,2 mm 2 m/s 752 mmHg 57%
    22:00 +21°C° 0,2 mm 2 m/s 752 mmHg 62%
    23:00 +21°C° 0,2 mm 2 m/s 752 mmHg 67%

    27 Aprilie, Vineri

    Timp Temperatura Precipitaţii Vânt Presiune Umiditate
    00:00 +20°C° 0,2 mm 2 m/s 752 mmHg 70%
    01:00 +19°C° 0,2 mm 2 m/s 751 mmHg 73%
    02:00 +19°C° 0,2 mm 1 m/s 751 mmHg 77%
    03:00 +19°C° 0 mm 1 m/s 751 mmHg 77%
    04:00 +18°C° 0 mm 1 m/s 751 mmHg 78%
    05:00 +18°C° 0 mm 1 m/s 751 mmHg 78%
    06:00 +18°C° 0,1 mm 2 m/s 752 mmHg 73%
    07:00 +20°C° 0,1 mm 2 m/s 752 mmHg 68%
    08:00 +21°C° 0,1 mm 2 m/s 752 mmHg 62%
    09:00 +24°C° 0,2 mm 3 m/s 752 mmHg 57%
    10:00 +25°C° 0,2 mm 3 m/s 752 mmHg 51%
    11:00 +27°C° 0,2 mm 3 m/s 752 mmHg 46%
    12:00 +27°C° 0,1 mm 3 m/s 751 mmHg 44%
    13:00 +28°C° 0,1 mm 3 m/s 751 mmHg 42%
    14:00 +29°C° 0,1 mm 3 m/s 751 mmHg 40%
    15:00 +28°C° 0,1 mm 3 m/s 751 mmHg 40%
    16:00 +28°C° 0,1 mm 2 m/s 751 mmHg 41%
    17:00 +28°C° 0,1 mm 2 m/s 751 mmHg 42%
    18:00 +26°C° 0,1 mm 2 m/s 751 mmHg 47%
    19:00 +25°C° 0,1 mm 2 m/s 751 mmHg 51%
    20:00 +23°C° 0,1 mm 2 m/s 752 mmHg 56%
    21:00 +21°C° 0,2 mm 3 m/s 752 mmHg 61%
    22:00 +20°C° 0,2 mm 3 m/s 752 mmHg 65%
    23:00 +19°C° 0,2 mm 3 m/s 753 mmHg 70%

    28 Aprilie, Sâmbătă

    Timp Temperatura Precipitaţii Vânt Presiune Umiditate
    00:00 +19°C° 0,2 mm 3 m/s 753 mmHg 73%
    01:00 +18°C° 0,2 mm 3 m/s 753 mmHg 76%
    02:00 +18°C° 0,2 mm 4 m/s 753 mmHg 78%
    03:00 +17°C° 0,1 mm 4 m/s 753 mmHg 80%
    04:00 +17°C° 0,1 mm 4 m/s 753 mmHg 81%
    05:00 +17°C° 0,1 mm 4 m/s 754 mmHg 82%
    06:00 +18°C° 0,1 mm 4 m/s 754 mmHg 78%
    07:00 +19°C° 0,1 mm 5 m/s 754 mmHg 75%
    08:00 +20°C° 0,1 mm 5 m/s 754 mmHg 71%
    09:00 +21°C° 0,1 mm 5 m/s 754 mmHg 67%
    10:00 +23°C° 0,1 mm 4 m/s 754 mmHg 62%
    11:00 +25°C° 0,1 mm 4 m/s 754 mmHg 57%
    12:00 +26°C° 0,1 mm 4 m/s 754 mmHg 53%
    13:00 +27°C° 0,1 mm 3 m/s 754 mmHg 49%
    14:00 +28°C° 0,1 mm 3 m/s 753 mmHg 45%
    15:00 +28°C° 0 mm 3 m/s 753 mmHg 43%
    16:00 +28°C° 0 mm 3 m/s 753 mmHg 42%
    17:00 +28°C° 0 mm 3 m/s 753 mmHg 40%
    18:00 +26°C° 0 mm 3 m/s 753 mmHg 46%
    19:00 +22°C° 0 mm 3 m/s 753 mmHg 51%
    20:00 +20°C° 0 mm 3 m/s 753 mmHg 57%
    21:00 +19°C° 0 mm 2 m/s 754 mmHg 60%
    22:00 +18°C° 0 mm 2 m/s 754 mmHg 63%
    23:00 +17°C° 0 mm 2 m/s 754 mmHg 66%
    Arată mai mult